• MPC Preparation (Info)

  • MPEC 2019-E99 : 2019 EL2

    The following Minor Planet Electronic Circular may be linked-to from your own Web pages, but must not otherwise be redistributed electronically.

    A form allowing access to any MPEC is at the bottom of this page.


    Read MPEC 2019-E98 Read MPEC 2019-F01


    M.P.E.C. 2019-E99                                Issued 2019 Mar. 15, 19:03 UT
    
         The Minor Planet Electronic Circulars contain information on unusual
             minor planets and routine data on comets.  They are published
        on behalf of Division F of the International Astronomical Union by the
              Minor Planet Center, Smithsonian Astrophysical Observatory,
                              Cambridge, MA 02138, U.S.A.
    
                 Prepared using the Tamkin Foundation Computer Network
    
                                  MPC@CFA.HARVARD.EDU
                URL https://www.minorplanetcenter.net/    ISSN 1523-6714
    
                                       2019 EL2
    
    Observations:
         K19E02L* C2019 03 14.52450513 46 09.99 +01 55 42.0          17.44oVEE099T08
         K19E02L  C2019 03 14.53396713 46 25.12 +01 59 08.6          17.92oVEE099T08
         K19E02L  C2019 03 14.54268713 46 38.88 +02 02 16.0          18.05oVEE099T08
         K19E02L  C2019 03 14.55288413 46 54.98 +02 05 56.4          17.95oVEE099T08
         K19E02L KC2019 03 15.00588813 59 46.78 +04 25 44.1          18.5 GVEE099C95
         K19E02L KC2019 03 15.00902813 59 50.73 +04 26 37.0          18.1 GVEE099C95
         K19E02L KC2019 03 15.01216713 59 54.85 +04 27 30.5          18.1 GVEE099C95
         K19E02L KC2019 03 15.01531013 59 58.76 +04 28 23.6          19.1 GVEE099C95
         K19E02L KC2019 03 15.01845614 00 02.94 +04 29 16.9          18.0 GVEE099C95
         K19E02L KC2019 03 15.07024414 01 03.76 +04 43 29.0          18.5 GVEE099L01
         K19E02L KC2019 03 15.07082914 01 04.50 +04 43 38.7          18.3 GVEE099L01
         K19E02L KC2019 03 15.07142614 01 05.24 +04 43 48.3          18.5 GVEE099L01
         K19E02L IC2019 03 15.07201914 01 05.96 +04 43 57.9          18.0 GVEE099L01
         K19E02L KC2019 03 15.07478914 01 09.40 +04 44 43.2          17.9 GVEE099L01
         K19E02L KC2019 03 15.07557914 01 10.36 +04 44 56.2          18.2 GVEE099L01
         K19E02L  C2019 03 15.12450 14 02 14.15 +04 58 16.1          17.9 RVEE099511
         K19E02L  C2019 03 15.12777 14 02 18.08 +04 59 08.0          18.2 RVEE099511
         K19E02L  C2019 03 15.12842 14 02 18.84 +04 59 17.9          18.4 RVEE099511
         K19E02L  C2019 03 15.12906 14 02 19.64 +04 59 28.9          18.3 RVEE099511
         K19E02L  C2019 03 15.12971 14 02 20.41 +04 59 38.7          18.3 RVEE099511
         K19E02L  C2019 03 15.13003 14 02 20.81 +04 59 44.1          18.1 RVEE099511
         K19E02L  C2019 03 15.40903 14 08 32.58 +06 10 28.8          18.7 GVEE099703
         K19E02L KC2019 03 15.40999 14 08 33.98 +06 09 31.9          18.3 GVEE099V01
         K19E02L  C2019 03 15.41426 14 08 37.76 +06 11 41.5          18.4 GVEE099703
         K19E02L  C2019 03 15.41948 14 08 43.03 +06 12 52.8          18.6 GVEE099703
         K19E02L  C2019 03 15.42471 14 08 48.26 +06 14 05.5          18.6 GVEE099703
         K19E02L KC2019 03 15.43514 14 08 59.65 +06 15 17.8          18.5 GVEE099V01
    
    Observer details:
    511 Haute Provence.  Observers S. Bouquillon, N. Brucy, A. Buellet,
        J. Couturier, V. Nourry, N. Robichon, F. Taris, T. Carlucci, C. Barache.
        1.20-m f/6 reflector + CCD.
    703 Catalina Sky Survey.  Observer R. A. Kowalski.  Measurers B. M. Africano,
        E. J. Christensen, G. A. Farneth, D. C. Fuls, A. R. Gibbs, A. D. Grauer,
        H. Groeller, R. A. Kowalski, S. M. Larson, G. J. Leonard, T. A. Pruyne,
        R. L. Seaman, F. C. Shelly.  0.68-m Schmidt + 10K CCD.
    C95 SATINO Remote Observatory, Haute Provence.  Observer J. Jahn.  0.60-m
        f/3.2 Newtonian reflector + CCD.
    L01 Visnjan Observatory, Tican.  Observer K. Korlevic.  1.0-m f/2.9 reflector
        + CCD.
    T08 ATLAS-MLO, Mauna Loa.  Observers L. Denneau, J. Tonry, A. Heinze,
        H. Weiland, H. Flewelling.  Measurers L. Denneau, J. Tonry, A. Heinze,
        H. Weiland, H. Flewelling, B. Stalder, A. Fitzsimmons, D. Young,
        N. Erasmus.  0.5-m reflector + CCD.
    V01 .  Observer B. Sheets.  0.35-m Schmidt-Cassegrain + CCD.
    
    Orbital elements:
    2019 EL2                                                 Earth MOID = 0.0066 AU
    Epoch 2019 Apr. 27.0 TT = JDT 2458600.5                 MPC
    M  33.88845              (2000.0)            P               Q
    n   0.52299585     Peri.  336.37119     -0.85662638     -0.51569809
    a   1.5257049      Node   172.52634     +0.49052880     -0.82349870
    e   0.3578071      Incl.    6.93603     +0.15991478     -0.23644316
    P   1.88           H   26.4           G   0.15           U   6
    Residuals in seconds of arc
    190314 T08  0.1-  0.1-    190315 L01  0.3+  0.2+    190315 511  0.5-  0.1-
    190314 T08  0.7+  0.6+    190315 L01  0.6+  0.4+    190315 511  0.7-  0.6-
    190314 T08  0.3-  0.8-    190315 L01  0.6+  0.2+    190315 511  0.5-  0.3-
    190314 T08  0.4-  0.1+    190315 L01  0.3+  0.1+    190315 703  0.5+  0.3-
    190315 C95  1.4+  0.8+    190315 L01  0.5+  0.1+    190315 V01  1.3+  0.9+
    190315 C95  0.5-  0.2+    190315 L01  0.3+  0.1+    190315 703  0.8-  0.0
    190315 C95  0.4+  0.4+    190315 511  0.4-  0.5-    190315 703  0.4-  0.7-
    190315 C95  1.7-  0.1+    190315 511  0.6-  0.6-    190315 703  0.6-  0.0
    190315 C95  0.3+  0.1+    190315 511  0.9-  1.0-    190315 V01  0.7+  0.5+
    
    Ephemeris:
    2019 EL2                 a,e,i = 1.53, 0.36, 7                   q = 0.9798
    Date    TT    R. A. (2000) Decl.     Delta      r     Elong.  Phase     V
    2019 02 13    03 40 17.6 -22 06 08   0.09928 0.9819    84.0    90.2    24.5
    ...
    2019 02 28    04 01 10.3 -24 25 37   0.04547 0.9815    77.4   100.0    23.3
    ...
    2019 03 08    05 04 08.8 -31 07 57   0.01618 0.9914    85.7    93.3    20.7
    ...
    2019 03 14    13 26 58.3 -01 41 22   0.01027 1.0030   151.3    28.4    17.7
    2019 03 15    13 59 21.1 +04 30 49   0.01348 1.0053   144.5    35.0    18.5
    2019 03 16    14 19 03.5 +08 13 08   0.01695 1.0076   140.2    39.2    19.1
    ...
    2019 03 22    15 00 15.2 +15 36 40   0.03924 1.0236   133.4    45.0    21.1
    ...
    2019 03 30    15 10 52.1 +17 40 43   0.06984 1.0495   135.5    41.8    22.4
    ...
    2019 04 14    15 07 50.7 +17 42 12   0.1299  1.1098   143.4    32.6    23.6
    
    A. U. Tomatic                (C) Copyright 2019 MPC           M.P.E.C. 2019-E99
    

    Read MPEC 2019-E98 Read MPEC 2019-F01


    MPEC number:

    Enter an MPEC number in one of the following forms:

    • 1997-B01 (the full form)
    • J97B01 (the packed version of the full form)
    • B01 (the abbreviated form)